Weather History for South Lake Tahoe, CA

Change the Weather History Date:

Friday, February 1, 2013

  Actual Average Record
Temperature  
Mean Temperature 33 °F 30 °F  
Max Temperature 49 °F 43 °F 56 °F (1997)
Min Temperature 16 °F 16 °F -5 °F (1981)
Degree Days  
Heating Degree Days 32 35  
Month to date heating degree days 32 35  
Since 1 July heating degree days 4103 4317  
Cooling Degree Days 0 0  
Month to date cooling degree days 0 0  
Year to date cooling degree days 0 0  
Moisture  
Dew Point 17 °F    
Average Humidity 55    
Maximum Humidity 80    
Minimum Humidity 29    
Precipitation  
Precipitation 0.00 in - 5.80 in (1963)
Month to date precipitation 0.00  
Year to date precipitation 0.71  
Sea Level Pressure  
Sea Level Pressure 30.33 in    
Wind  
Wind Speed 2 mph (East)    
Max Wind Speed 12 mph    
Max Gust Speed 21 mph    
Visibility 10 miles    
Events      
T = Trace of Precipitation, MM = Missing Value Source: NWS Daily Summary

Daily Weather History Graph

Daily Weather History Graph

Search for Another Location

Airport:

Trip Planner

Search our weather history database for the weather conditions in past years. The results will help you decide how hot, cold, wet, or windy it might be!

Date:

Astronomy

Feb. 01, 2013 Rise Set
Actual Time 7:05 AM PST 5:21 PM PST
Civil Twilight 6:37 AM PST 5:49 PM PST
Nautical Twilight 6:05 AM PST 6:21 PM PST
Astronomical Twilight 5:34 AM PST 6:53 PM PST
Moon 11:30 PM PST (2/1) 9:45 AM PST (2/1)
Length of Visible Light 11h 12m
Length of Day
10h 15m
Waning Gibbous, 69% of the Moon is Illuminated
Feb 1
Waning Gibbous
Feb 3
Last Quarter
Feb 9
New
Feb 17
First Quarter
Feb 25
Full

Hourly Weather History & Observations

Time (PST) Temp. Windchill Dew Point Humidity Pressure Visibility Wind Dir Wind Speed Gust Speed Precip Events Conditions
12:53 AM 21.0 °F - 12.9 °F 71% 30.30 in 10.0 mi Calm Calm - N/A   Clear
2:53 AM 19.0 °F 13.9 °F 12.0 °F 74% 30.30 in 10.0 mi South 3.5 mph - N/A   Clear
3:53 AM 18.0 °F - 10.9 °F 74% 30.30 in 10.0 mi Calm Calm - N/A   Clear
4:53 AM 18.0 °F - 10.0 °F 71% 30.31 in 10.0 mi Calm Calm - N/A   Clear
5:53 AM 17.1 °F 11.7 °F 10.0 °F 74% 30.34 in 10.0 mi South 3.5 mph - N/A   Clear
6:53 AM 16.0 °F 10.4 °F 9.0 °F 74% 30.37 in 10.0 mi SSW 3.5 mph - N/A   Clear
7:53 AM 16.0 °F - 10.0 °F 77% 30.40 in 10.0 mi Calm Calm - N/A   Clear
8:53 AM 23.0 °F - 12.9 °F 65% 30.40 in 10.0 mi Calm Calm - N/A   Clear
9:53 AM 32.0 °F 28.7 °F 14.0 °F 48% 30.35 in 10.0 mi South 3.5 mph - N/A   Clear
10:53 AM 43.0 °F 41.3 °F 12.9 °F 30% 30.32 in 10.0 mi ENE 3.5 mph - N/A   Clear
11:53 AM 45.0 °F 41.8 °F 18.0 °F 34% 30.30 in 10.0 mi NNE 5.8 mph - N/A   Clear
12:53 PM 44.1 °F 39.0 °F 21.9 °F 42% 30.28 in 10.0 mi NNE 9.2 mph - N/A   Clear
1:53 PM 46.0 °F 41.9 °F 24.1 °F 42% 30.26 in 10.0 mi NE 8.1 mph - N/A   Clear
2:53 PM 46.9 °F - 25.0 °F 42% 30.26 in 10.0 mi NNE 6.9 mph - N/A   Clear
3:53 PM 46.0 °F 44.8 °F 26.1 °F 46% 30.27 in 10.0 mi North 3.5 mph - N/A   Clear
4:53 PM 39.0 °F - 26.1 °F 60% 30.30 in 10.0 mi Calm Calm - N/A   Clear
5:53 PM 35.1 °F - 24.1 °F 64% 30.34 in 10.0 mi Calm Calm - N/A   Clear
6:53 PM 32.0 °F - 21.9 °F 66% 30.38 in 10.0 mi Calm Calm - N/A   Clear
7:53 PM 30.0 °F 26.5 °F 21.0 °F 69% 30.41 in 10.0 mi South 3.5 mph - N/A   Clear
8:53 PM 28.0 °F - 19.9 °F 72% 30.40 in 10.0 mi Calm Calm - N/A   Clear
9:53 PM 28.0 °F - 19.9 °F 72% 30.37 in 10.0 mi Calm Calm - N/A   Clear
10:53 PM 27.0 °F - 19.0 °F 72% 30.34 in 10.0 mi Calm Calm - N/A   Clear
11:53 PM 26.1 °F - 18.0 °F 71% 30.33 in 10.0 mi Calm Calm - N/A   Clear